Location: Pardubice
(50.0618°N, 15.7556°E)
Time: 15:46:35
(UTC+02:00)

ISS - Pass Details

Date: 25 May 2018
Orbit: 402 x 406 km, 51.6° (Epoch: 18 June)

Event Time Altitude Azimuth Distance (km) Brightness Sun altitude
Rises 21:56:24 0° 252° (WSW) 2,318 0.3 -8.8°
Reaches altitude 10° 21:58:29 10° 252° (WSW) 1,459 -0.7 -9.0°
Maximum altitude 22:01:45 88° 163° (SSE) 409 -3.9 -9.3°
Drops below altitude 10° 22:05:06 10° 74° (ENE) 1,493 -1.2 -9.7°
Sets 22:07:07 0° 75° (ENE) 2,321 -0.2 -9.9°
